Regional Weather Roundup
Issued by NWS Cleveland, OH

Home | Current Version | Previous Version | Graphics & Text | Print | Product List | Glossary On
Versions: 1 2 3 4 5 6 7 8 9 10 11 12 13 14 15 16 17 18 19 20 21 22 23 24 25 26 27 28 29 30 31 32 33 34 35 36 37 38 39 40 41 42 43 44 45 46 47 48 49 50
000
ASUS41 KCLE 012210
RWRCLE
OHIO REGIONAL WEATHER ROUNDUP
NATIONAL WEATHER SERVICE CLEVELAND, OH
600 PM EDT WED JUL 01 2015

NOTE: "FAIR" INDICATES FEW OR NO CLOUDS BELOW 12,000 FEET WITH NO
SIGNIFICANT WEATHER AND/OR OBSTRUCTIONS TO VISIBILITY.

OHZ001>008-015>018-024>027-034-035-043-044-012300-
   NORTHWEST OHIO

CITY           SKY/WX    TMP DP  RH WIND       PRES   REMARKS
DEFIANCE       MOSUNNY   75  56  51 NW7       29.90F
FINDLAY        MOSUNNY   76  57  51 NW6       29.89F
TOLEDO EXPRESS MOSUNNY   73  55  53 N6        29.89F
TOLEDO EXEC    MOSUNNY   75  56  51 W6        29.90F
LIMA           PTSUNNY   73  57  57 W5        29.90F
$$

OHZ009>014-019>023-028>033-038-089-012300-
   NORTHEAST OHIO

CITY           SKY/WX    TMP DP  RH WIND       PRES   REMARKS
CLE-HOPKINS    MOSUNNY   71  61  70 N10       29.91S
CLE-LAKEFRONT  SUNNY     72  60  66 NW6       29.90R
CUY CO. ARPT   MOSUNNY   72  59  64 NW9       29.91S
LORAIN-ELYRIA  MOSUNNY   73  62  68 N7        29.90S
ASHTABULA      MOSUNNY   72  59  63 NW5       29.91S
AKRON-CANTON   MOSUNNY   75  57  53 W8        29.90S
WOOSTER        SUNNY     73  58  59 W10       29.92R
MANSFIELD      MOSUNNY   74  58  57 W9        29.92S
YOUNGSTOWN     PTSUNNY   73  58  59 N8        29.89F
$$

OHZ042-051>053-060>062-070>072-077>081-012300-
  SOUTHWEST OHIO

CITY           SKY/WX    TMP DP  RH WIND       PRES   REMARKS
CINC-COVINGTON CLOUDY    78  63  59 CALM      29.90F
CINC-LUNKEN    MOSUNNY   79  59  50 CALM      29.89F
HAMILTON       SUNNY     79  61  53 CALM      29.90F
DAYTON         PTSUNNY   77  59  53 NW6       29.91F
WRIGHT-PAT AFB MOSUNNY   77  57  49 VRB5      29.90F
DAYTON GENERAL MOSUNNY   77  58  51 CALM      29.90F
WILMINGTON     MOSUNNY   77  55  46 W5        29.91F
$$

OHZ036-037-039>041-045>050-054>059-063>069-073>076-082>088-012300-
  CENTRAL AND SOUTHEAST OHIO

CITY           SKY/WX    TMP DP  RH WIND       PRES   REMARKS
COLUMBUS       MOSUNNY   76  58  53 W12       29.90S
OSU AIRPORT    MOSUNNY   77  58  51 W9        29.90F
BOLTON FIELD   NOT AVBL
RICKENBACK AFB MOSUNNY   77  59  53 W7        29.90S
NEWARK         MOSUNNY   78  57  48 NW7       29.90S
MARION         MOSUNNY   74  56  53 NW8       29.92S
LANCASTER      MOSUNNY   77  59  53 W5        29.91F
ZANESVILLE     NOT AVBL
NEW PHILLY     SUNNY     74  60  61 W6        29.91S
$$



USA.gov is the U.S. government's official web portal to all federal, state and local government web resources and services.